Rochester, MN

10:51 AM CDT on May 24, 2017 (GMT -0500)
Rochester International

Weather History for KRST - May, 2013

Change the Weather History Date:

Tuesday, May 21, 2013

  Actual Average Record
Temperature  
Mean Temperature 61 °F 60 °F  
Max Temperature 64 °F 70 °F 88 °F (1964)
Min Temperature 58 °F 49 °F 31 °F (1929)
Degree Days  
Heating Degree Days 4 7  
Month to date heating degree days 234 193  
Since 1 July heating degree days 7687 7618  
Cooling Degree Days 0 1  
Month to date cooling degree days 20 14  
Year to date cooling degree days 20 18  
Growing Degree Days 10 (Base 50)    
Moisture  
Dew Point 55 °F    
Average Humidity 80    
Maximum Humidity 93    
Minimum Humidity 67    
Precipitation  
Precipitation 0.02 in 0.11 in 1.62 in (1945)
Month to date precipitation 8.55 2.41  
Year to date precipitation 20.19 9.22  
Snow  
Snow 0.00 in 0.00 in 0.00 in (2012)
Month to date snowfall 14.5 0.2  
Since 1 July snowfall 74.0 52.1  
Snow Depth 0.00 in    
Sea Level Pressure  
Sea Level Pressure 29.62 in    
Wind  
Wind Speed 9 mph (SSW)    
Max Wind Speed 21 mph    
Max Gust Speed 25 mph    
Visibility 10 miles    
Events      
T = Trace of Precipitation, MM = Missing Value Source: NWS Daily Summary

Daily Weather History Graph

Daily Weather History Graph

Search for Another Location

Airport or City:

Trip Planner

Search our weather history database for the weather conditions in past years. The results will help you decide how hot, cold, wet, or windy it might be!

Date:

Astronomy

May. 21, 2013 Rise Set
Actual Time 5:38 AM CDT 8:35 PM CDT
Civil Twilight 5:03 AM CDT 9:10 PM CDT
Nautical Twilight 4:20 AM CDT 9:53 PM CDT
Astronomical Twilight 3:29 AM CDT 10:45 PM CDT
Moon 4:43 PM CDT (5/21) 3:14 AM CDT (5/21)
Length of Visible Light 16h 06m
Length of Day
14h 57m
Waxing Gibbous, 84% of the Moon is Illuminated
May 21
Waxing Gibbous
May 24
Full
May 31
Last Quarter
Jun 8
New
Jun 16
First Quarter

Hourly Weather History & Observations

Time (CDT) Temp. Dew Point Humidity Pressure Visibility Wind Dir Wind Speed Gust Speed Precip Events Conditions
12:54 AM 59.0 °F 54.0 °F 83% 29.57 in 10.0 mi SSE 3.5 mph - N/A   Mostly Cloudy
1:54 AM 59.0 °F 55.0 °F 87% 29.56 in 10.0 mi ESE 8.1 mph - N/A   Mostly Cloudy
2:54 AM 60.1 °F 55.9 °F 86% 29.55 in 10.0 mi SSE 10.4 mph - N/A   Overcast
3:54 AM 59.0 °F 55.9 °F 90% 29.55 in 10.0 mi SE 11.5 mph - 0.02 in   Overcast
4:54 AM 57.9 °F 55.9 °F 93% 29.53 in 10.0 mi SE 10.4 mph - N/A   Scattered Clouds
5:54 AM 57.9 °F 55.9 °F 93% 29.55 in 10.0 mi SSE 10.4 mph - N/A   Overcast
6:54 AM 59.0 °F 57.0 °F 93% 29.55 in 10.0 mi SSE 8.1 mph - 0.00 in   Overcast
7:54 AM 60.1 °F 57.9 °F 93% 29.57 in 8.0 mi SSW 10.4 mph - 0.00 in   Overcast
8:28 AM 62.6 °F 59.0 °F 88% 29.58 in 8.0 mi SSW 12.7 mph - N/A   Overcast
8:41 AM 62.6 °F 57.2 °F 82% 29.58 in 9.0 mi SSW 11.5 mph - N/A   Overcast
8:54 AM 63.0 °F 57.9 °F 84% 29.58 in 9.0 mi SSW 9.2 mph - N/A   Overcast
9:39 AM 62.6 °F 57.2 °F 82% 29.60 in 10.0 mi SW 12.7 mph - N/A   Overcast
9:54 AM 62.1 °F 57.0 °F 84% 29.59 in 10.0 mi SW 15.0 mph - N/A   Overcast
10:41 AM 62.6 °F 55.4 °F 77% 29.61 in 10.0 mi SW 9.2 mph - N/A   Overcast
10:54 AM 63.0 °F 55.9 °F 78% 29.60 in 10.0 mi SSW 10.4 mph - N/A   Overcast
11:54 AM 62.1 °F 54.0 °F 75% 29.62 in 10.0 mi SW 11.5 mph - N/A   Overcast
12:34 PM 62.6 °F 53.6 °F 72% 29.63 in 10.0 mi SW 10.4 mph - N/A   Overcast
12:54 PM 62.1 °F 54.0 °F 75% 29.63 in 10.0 mi SSW 16.1 mph 20.7 mph N/A   Overcast
1:08 PM 62.6 °F 55.4 °F 77% 29.64 in 10.0 mi SSW 12.7 mph - N/A   Overcast
1:54 PM 63.0 °F 52.0 °F 67% 29.64 in 10.0 mi SSW 18.4 mph - N/A   Overcast
2:54 PM 63.0 °F 52.0 °F 67% 29.64 in 10.0 mi SSW 18.4 mph - N/A   Overcast
3:54 PM 63.0 °F 52.0 °F 67% 29.66 in 10.0 mi SW 16.1 mph - N/A   Overcast
4:54 PM 62.1 °F 51.1 °F 67% 29.67 in 10.0 mi SW 13.8 mph - N/A   Overcast
5:54 PM 61.0 °F 52.0 °F 72% 29.68 in 10.0 mi SW 10.4 mph - N/A   Overcast
6:54 PM 61.0 °F 53.1 °F 75% 29.67 in 10.0 mi SSW 3.5 mph - N/A   Overcast
7:54 PM 60.1 °F 53.1 °F 78% 29.69 in 10.0 mi SSW 3.5 mph - N/A   Overcast
8:54 PM 60.1 °F 52.0 °F 75% 29.70 in 10.0 mi WSW 3.5 mph - N/A   Overcast
9:54 PM 60.1 °F 51.1 °F 72% 29.70 in 10.0 mi Calm Calm - N/A   Overcast
10:54 PM 59.0 °F 52.0 °F 78% 29.69 in 10.0 mi Calm Calm - N/A   Overcast
11:54 PM 57.9 °F 53.1 °F 84% 29.69 in 10.0 mi Calm Calm - N/A   Overcast